This is the latest recevied weather packets stored in our database for station/object HG8LXL-2. If no packets are shown the sender has not sent any weather packets the latest 10 day(s).
| Time | Temp. | Humidity | Pressure | Rain* | Wind** | Luminosity | Snow |
|---|---|---|---|---|---|---|---|
| 1778168404 | 23.89° C | 62% | 1010.7 hPa | - | - | - | - |
| 1778168105 | 23.33° C | 62% | 1010.8 hPa | - | - | - | - |
| 1778167804 | 23.33° C | 64% | 1010.7 hPa | - | - | - | - |
| 1778167504 | 23.33° C | 63% | 1010.8 hPa | - | - | - | - |
| 1778167204 | 23.33° C | 65% | 1010.8 hPa | - | - | - | - |
| 1778166904 | 23.33° C | 63% | 1010.8 hPa | - | - | - | - |
| 1778166604 | 23.33° C | 62% | 1010.8 hPa | - | - | - | - |
| 1778166304 | 22.78° C | 64% | 1010.8 hPa | - | - | - | - |
| 1778166004 | 23.33° C | 63% | 1010.9 hPa | - | - | - | - |
| 1778165704 | 22.78° C | 66% | 1010.9 hPa | - | - | - | - |
| 1778165404 | 22.78° C | 67% | 1011.1 hPa | - | - | - | - |
| 1778165104 | 22.22° C | 70% | 1011.1 hPa | - | - | - | - |
| 1778164804 | 22.22° C | 68% | 1011.3 hPa | - | - | - | - |
| 1778164504 | 22.78° C | 67% | 1011.3 hPa | - | - | - | - |
| 1778164204 | 22.78° C | 67% | 1011.4 hPa | - | - | - | - |
| 1778163904 | 21.67° C | 70% | 1011.5 hPa | - | - | - | - |
| 1778163604 | 21.67° C | 71% | 1011.6 hPa | - | - | - | - |
| 1778163304 | 21.67° C | 69% | 1011.5 hPa | - | - | - | - |
| 1778163004 | 22.22° C | 69% | 1011.5 hPa | - | - | - | - |
| 1778162704 | 21.67° C | 69% | 1011.5 hPa | - | - | - | - |
| 1778162404 | 22.22° C | 71% | 1011.5 hPa | - | - | - | - |
| 1778162104 | 22.22° C | 71% | 1011.7 hPa | - | - | - | - |
| 1778161804 | 22.22° C | 69% | 1011.6 hPa | - | - | - | - |
| 1778161504 | 22.22° C | 70% | 1011.5 hPa | - | - | - | - |
| 1778161204 | 21.67° C | 71% | 1011.5 hPa | - | - | - | - |
* Rain since midnight (hover to see other rain measurements)
** Current wind speed in m/s (hover to see current wind gust speed)